SCP
2 2 1 1 1 0 0 0 0 0 0 0 0 0 0 0 0 0 0 0 0 0 0 0 0 0 0 0 0 0 0 0 0 0 0 0 0 0 0 0 0 0 0
2 1 1 1 1 0 0 0 0 0 0 0 0 0 0 0 0 0 0 0 0 0 0 0 0 0 0 0 0 0 0 0 0 0 0 0 0 0 0 0 0 0 0
1 1 1 1 0 0 0 0 0 0 0 0 0 0 0 0 0 0 0 0 0 0 0 0 0 0 0 0 0 0 0 0 0 0 0 0 0 0 0 0 0 0 0
1 1 1 1 1 0 0 0 0 0 0 0 0 0 0 0 0 0 0 0 0 0 0 0 0 0 0 0 0 0 0 0 0 0 0 0 0 0 0 0 0 0 0
1 1 1 1 1 1 0 0 0 0 0 0 0 0 0 0 0 0 0 0 0 0 0 0 0 0 0 0 0 0 0 0 0 0 0 0 0 0 0 0 0 0 0
1 1 1 1 1 0 0 0 0 0 0 0 0 0 0 0 0 0 0 0 0 0 0 0 0 0 0 0 0 0 0 0 0 0 0 0 0 0 0 0 0 0 0
1 1 1 1 0 0 0 0 0 0 0 0 0 0 0 0 0 0 0 0 0 0 0 0 0 0 0 0 0 0 0 0 0 0 0 0 0 0 0 0 0 0 0
1 1 1 0 0 0 0 0 0 0 0 0 0 0 0 0 0 0 0 0 0 0 0 0 0 0 0 0 0 0 0 0 0 0 0 0 0 0 0 0 0 0 0
1 1 1 0 0 0 0 0 0 0 0 0 0 0 0 0 0 0 0 0 0 0 0 0 0 0 0 0 0 0 0 0 0 0 0 0 0 0 0 0 0 0 0
1 1 1 0 0 0 0 0 0 0 0 0 0 0 0 0 0 0 0 0 0 0 0 0 0 0 0 0 0 0 0 0 0 0 0 0 0 0 0 0 0 0 0
1 1 1 1 0 0 0 0 0 0 0 0 0 0 0 0 0 0 0 0 0 0 0 0 0 0 0 0 0 0 0 0 0 0 0 0 0 0 0 0 0 0 0
1 1 1 1 1 0 0 0 0 0 0 0 0 0 0 0 0 0 0 0 0 0 0 0 0 0 0 0 0 0 0 0 0 0 0 0 0 0 0 0 0 0 0
1 1 1 1 1 1 0 0 0 0 0 0 0 0 0 0 0 0 0 0 0 0 0 0 0 0 0 0 0 0 0 0 0 0 0 0 0 0 0 0 0 0 0
1 1 1 1 1 1 1 1 0 0 0 0 0 0 0 0 0 0 0 0 0 0 0 0 0 0 0 0 0 0 0 0 0 0 0 0 0 0 0 0 0 0 0
1 1 1 1 1 1 1 0 0 0 0 0 0 0 0 0 0 0 0 0 0 0 0 0 0 0 0 0 0 0 0 0 0 0 0 0 0 0 0 0 0 0 0
1 1 1 1 1 1 0 0 0 0 0 0 0 0 0 0 0 0 0 0 0 0 0 0 0 0 0 0 0 0 0 0 0 0 0 0 0 0 0 0 0 0 0
1 1 1 1 1 0 0 0 0 0 0 0 0 0 0 0 0 0 0 0 0 0 0 0 0 0 0 0 0 0 0 0 0 0 0 0 0 0 0 0 0 0 0
1 0 0 0 0 0 0 0 0 0 0 0 0 0 0 0 0 0 0 0 0 0 0 0 0 0 0 0 0 0 0 0 0 0 0 0 0 0 0 0 0 0 0
0 0 0 0 0 0 0 0 0 0 0 0 0 0 0 0 0 0 0 0 0 0 0 0 0 0 0 0 0 0 0 0 0 0 0 0 0 0 0 0 0 0 0
0 0 0 0 0 0 0 0 0 0 0 0 0 0 0 0 0 0 0 0 0 0 0 0 0 0 0 0 0 0 0 0 0 0 0 0 0 0 0 0 0 0 0
0 0 0 0 0 0 0 0 0 0 0 0 0 0 0 0 0 0 0 0 0 0 0 0 0 0 0 0 0 0 0 0 0 0 0 0 0 0 0 0 0 0 0
0 0 0 0 0 0 0 0 0 0 0 0 0 0 0 0 0 0 0 0 0 0 0 0 0 0 0 0 0 0 0 0 0 0 0 0 0 0 0 0 0 0 0
0 0 0 0 0 0 0 0 0 0 0 0 0 0 0 0 0 0 0 0 0 0 0 0 0 0 0 0 0 0 0 0 0 0 0 0 0 0 0 0 0 0 0
0 0 0 0 0 0 0 0 0 0 0 0 0 0 0 0 0 0 0 0 0 0 0 0 0 0 0 0 0 0 0 0 0 0 0 0 0 0 0 0 0 0 0
0 0 0 0 0 0 0 0 0 0 0 0 0 0 0 0 0 0 0 0 0 0 0 0 0 0 0 0 0 0 0 0 0 0 0 0 0 0 0 0 0 0 0
0 0 0 0 0 0 0 0 0 0 0 0 0 0 0 0 0 0 0 0 0 0 0 0 0 0 0 0 0 0 0 0 0 0 0 0 0 0 0 0 0 0 0
Wind_Speed
5 5 4 4 4 4 3 3 3 2 3 3 3 3 2 2 2 2 2 2 3 2 2 2 2 1 1 1 1 1 1 2 2 1 1 2 2 2 3 2 2 2 3
5 5 4 4 3 3 3 3 3 3 3 3 3 3 3 2 2 3 3 2 2 2 1 2 1 1 2 1 1 1 1 1 2 1 1 2 2 2 2 3 2 2 2
4 5 4 4 4 4 4 3 3 3 3 3 3 3 3 3 3 3 3 3 2 2 1 1 1 2 1 1 1 1 0 1 1 1 1 1 2 2 2 3 3 2 3
5 5 5 5 5 5 4 3 4 4 4 4 4 4 3 3 3 3 3 2 2 1 1 1 1 2 2 2 1 1 1 1 1 1 0 1 1 2 1 2 2 2 3
5 5 5 5 4 4 4 3 3 3 4 4 3 3 3 3 3 4 3 3 2 1 0 1 1 2 3 2 2 2 2 1 1 1 0 1 1 1 1 1 2 3 2
5 5 4 4 4 4 4 4 3 3 3 3 3 3 4 3 5 7 5 3 3 2 2 1 1 1 1 2 2 3 4 3 2 1 1 1 2 2 1 1 1 2 3
5 4 4 4 4 4 4 4 4 4 3 3 3 4 3 4 6 7 7 4 3 3 2 2 1 1 1 1 0 0 1 2 4 4 3 3 3 3 2 1 1 1 3
5 5 4 4 4 4 4 4 4 3 4 4 4 4 4 4 6 7 7 4 3 3 3 3 2 2 2 2 1 0 1 1 2 2 3 4 3 3 3 2 2 2 3
5 5 5 5 5 4 5 5 4 4 4 4 3 4 4 4 6 7 7 3 2 2 2 3 3 3 3 3 2 1 1 2 2 2 3 3 3 2 1 1 0 1 2
6 6 5 6 6 6 6 5 3 4 4 4 3 4 4 4 6 8 8 3 3 2 2 2 4 4 4 4 3 3 2 3 1 1 2 3 2 2 2 2 2 2 2
5 5 5 5 6 5 4 4 3 4 3 3 3 3 3 4 5 7 8 4 4 3 3 2 3 4 4 4 4 3 4 2 1 1 1 1 1 1 2 2 2 3 3
5 5 5 5 5 4 4 4 4 4 4 4 3 2 2 3 5 6 8 7 5 4 4 3 3 4 4 4 3 3 2 1 1 0 1 2 2 2 2 2 2 3 3
5 5 5 5 4 4 5 5 4 4 4 4 4 3 3 2 3 6 8 8 7 4 3 4 4 3 3 2 3 3 2 1 1 1 2 3 3 3 2 2 2 2 2
6 5 5 5 4 3 3 4 5 5 5 4 5 4 3 3 3 3 3 4 5 4 3 3 3 2 2 2 1 1 1 2 2 3 3 2 2 1 1 1 1 1 2
5 5 4 4 5 4 4 4 6 6 7 7 6 6 5 5 7 8 5 4 4 4 3 1 1 1 1 1 1 2 2 1 2 2 2 2 2 2 2 1 1 1 1
5 5 4 4 4 4 3 2 3 5 7 9 8 6 6 7 7 8 8 6 6 6 4 2 2 3 3 3 3 2 2 3 3 2 2 2 2 2 2 1 1 2 2
6 5 4 4 4 4 4 4 3 2 3 6 7 8 7 7 7 8 8 6 6 7 3 3 3 4 4 4 3 3 3 3 2 2 3 3 2 2 2 2 2 2 3
5 5 5 5 5 5 5 5 4 4 3 2 3 6 7 7 7 7 7 6 3 3 3 3 4 4 4 4 4 3 3 2 2 2 3 3 3 2 2 3 2 3 3
5 4 4 4 4 4 4 4 4 4 4 3 2 2 5 5 5 6 7 4 4 4 4 3 3 4 3 3 3 3 3 3 3 3 3 3 3 3 3 3 3 4 3
4 6 5 4 4 4 4 4 4 4 4 4 4 3 3 3 3 4 4 4 4 4 4 4 4 4 4 3 3 3 3 3 3 3 3 3 3 3 4 4 3 3 3
3 4 6 4 4 4 4 5 5 5 5 4 4 4 6 4 5 5 4 4 5 5 4 4 4 3 3 3 3 4 4 4 3 3 3 3 3 3 3 3 3 3 3
3 3 4 4 4 4 4 4 4 4 4 4 3 3 6 4 4 4 4 4 4 3 3 3 3 3 3 4 4 4 4 4 3 3 3 3 3 3 3 3 3 3 3
3 3 3 3 3 4 3 3 4 4 4 4 4 3 4 4 3 3 3 3 3 3 2 3 3 2 2 2 3 3 4 4 4 4 3 3 3 3 3 3 3 3 3
3 3 3 3 3 3 3 4 4 4 4 4 4 3 3 4 3 3 3 2 2 2 2 2 2 3 3 2 2 2 2 3 3 3 4 4 3 3 3 3 3 4 4
2 3 3 3 3 3 3 3 3 3 3 3 3 3 3 3 3 3 3 2 3 2 2 2 2 2 3 3 2 2 3 3 3 2 2 3 3 3 3 3 3 3 3
2 2 2 2 2 3 3 3 3 3 3 3 3 3 3 3 3 3 3 2 2 2 2 2 2 2 2 2 2 3 2 2 2 2 2 2 3 3 3 3 3 3 3
Wind_Direction
182 184 178 180 177 170 177 191 189 178 170 165 159 147 146 139 129 118 114 108 101 80 71 88 78 77 73 65 77 86 101 130 161 287 298 312 337 343 343 346 343 345 344
181 175 176 172 166 169 187 193 184 178 177 171 160 152 155 147 140 136 135 121 120 112 95 91 75 85 67 60 77 81 96 134 152 215 313 326 323 325 327 335 341 345 337
167 168 171 172 174 186 196 190 178 173 171 168 162 163 164 161 155 154 149 141 140 143 139 133 142 116 96 78 90 88 83 83 112 149 292 316 320 338 344 336 339 333 340
167 172 181 188 191 194 192 183 178 174 175 178 177 174 172 167 164 160 151 149 144 142 154 171 177 169 182 174 144 151 124 98 97 107 353 324 319 324 355 340 337 336 330
173 181 193 194 185 180 181 182 175 175 185 183 175 178 180 177 181 171 165 160 156 156 179 227 222 196 190 182 171 177 149 129 115 105 9 339 319 334 321 304 311 321 320
175 186 185 178 175 177 180 175 171 174 176 170 175 179 183 195 187 180 169 164 166 175 204 246 256 245 228 213 200 179 165 159 169 166 211 243 265 260 272 290 302 346 320
178 177 176 177 177 182 174 167 177 181 173 173 180 174 187 202 191 184 179 165 172 187 202 217 241 229 194 197 216 193 217 206 183 176 197 229 236 232 218 265 258 244 253
182 181 178 176 181 179 172 180 188 180 180 188 191 189 191 204 191 183 175 165 171 195 206 207 210 232 214 174 157 132 278 274 233 207 210 231 235 219 199 214 231 265 276
191 191 187 181 181 179 186 194 191 181 188 193 190 188 193 210 195 181 167 160 173 206 215 209 209 225 234 184 155 186 274 297 303 268 260 271 283 267 194 132 236 322 302
202 199 189 184 184 190 196 193 189 187 194 188 192 197 196 207 198 187 175 164 178 204 218 227 226 223 225 193 178 187 230 266 292 328 327 322 308 299 252 201 199 213 261
194 186 183 186 190 191 188 186 175 178 175 182 193 206 206 209 201 189 181 177 189 197 209 225 235 233 225 210 196 199 227 230 218 227 312 326 330 318 292 255 217 203 219
176 180 185 187 190 183 173 175 172 168 174 186 189 209 221 215 204 203 197 196 190 189 212 219 225 223 219 215 212 225 218 170 137 109 325 308 303 294 285 273 249 235 231
174 185 188 184 185 177 177 178 173 177 183 190 190 203 219 212 213 210 203 201 199 198 213 212 212 216 212 219 226 213 181 167 170 207 254 267 269 273 285 292 294 273 279
183 190 185 177 179 182 184 183 183 188 192 196 197 205 209 206 207 203 202 203 205 210 213 207 204 209 204 225 234 223 209 202 200 223 246 259 274 286 286 279 280 291 299
185 189 186 184 182 187 195 199 198 205 198 197 204 198 195 212 216 200 188 192 193 193 160 131 141 169 213 237 243 236 224 215 227 240 243 263 277 282 285 281 272 267 266
185 190 188 186 185 185 188 212 228 219 214 212 211 205 214 216 202 194 197 197 187 169 153 172 199 209 220 226 229 239 233 229 230 233 240 249 261 270 284 290 272 255 265
189 193 190 188 188 188 188 189 206 236 216 214 214 211 210 202 195 191 189 183 178 164 169 193 208 217 225 227 226 230 239 237 225 226 240 251 258 268 278 282 280 280 278
192 195 192 192 191 192 196 197 194 194 204 230 230 212 206 200 193 189 174 150 168 184 197 207 216 222 225 227 227 231 238 239 233 236 242 249 250 256 266 271 264 263 271
191 196 195 190 189 191 193 193 193 196 199 199 188 198 197 187 180 179 165 171 188 203 212 220 222 222 226 229 231 230 227 227 231 232 241 247 247 247 256 260 261 266 265
199 204 197 185 182 182 186 189 191 194 198 197 199 197 172 160 173 181 189 193 198 208 212 218 224 223 222 224 226 226 230 231 227 231 239 244 245 244 251 256 258 260 260
193 195 193 185 187 189 190 193 192 192 199 200 204 197 184 180 188 190 195 203 208 210 211 214 217 219 221 219 219 224 230 233 227 226 232 239 240 246 250 252 255 255 261
184 189 185 184 186 185 187 189 186 191 197 198 198 188 191 188 188 194 200 208 212 212 207 204 212 217 217 217 218 221 229 235 232 229 234 239 239 239 242 247 255 259 260
171 177 178 178 177 178 181 182 185 189 193 193 188 185 187 193 196 199 202 202 197 198 199 197 204 219 224 228 227 220 225 233 233 224 225 232 236 235 233 240 247 253 255
158 166 172 170 167 170 178 184 187 190 190 188 188 187 190 192 193 197 199 193 190 192 190 193 203 212 220 236 243 240 244 252 248 228 220 226 235 240 234 236 245 251 252
145 157 165 168 169 174 182 183 184 184 184 188 189 187 186 183 185 190 192 188 186 191 195 196 202 210 217 227 241 254 262 265 264 247 225 223 229 233 232 234 238 246 251
138 152 166 172 175 180 186 188 187 186 185 186 189 188 185 184 185 183 178 173 177 188 196 199 201 211 223 230 239 249 257 264 266 261 241 222 226 233 230 233 240 243 249